Tracking 29892 objects as of 21-Nov-2024
HD Live streaming from Space Station
objects crossing your sky now

STARLINK-31396

Track STARLINK-31396 now!
10-day predictions
STARLINK-31396 is classified as:


NORAD ID: 59409
Int'l Code: 2024-064M
Perigee: 449.9 km
Apogee: 452.4 km
Inclination: 43.0 °
Period: 93.5 minutes
Semi major axis: 6822 km
RCS: Unknown
Launch date: April 5, 2024
Source: United States (US)
Launch site: AIR FORCE EASTERN TEST RANGE (AFETR)
Your satellite tracking list
Your tracking list is empty




NASA's NSSDC Master Catalog

Two Line Element Set (TLE):
1 59409U 24064M   24326.08538381  .00000576  00000-0  21049-4 0  9994
2 59409  43.0033 219.5356 0001820 261.0293  99.0358 15.40697818 36638
Source of the keplerian elements: AFSPC